This demonstration page uses our WeatherBlox Daily Observations layout. Learn more.

Hourly Observations for October 5, 2019

Temp ( °F °C ) Dew Point ( °F °C ) Humidity (%) Winds ( mph kmh ) Pressure ( in mb ) Visibility ( mi km ) Precip ( " mm )
12:15 am 00:15 Clear 52 11 41 5 67 67 NE 7 11 30.39 1029 10 16.09344 0 0
12:35 am 00:35 Clear 50 10 41 5 71 71 NE 3 6 30.42 1030 10 16.09344 0 0
12:55 am 00:55 Clear 50 10 41 5 71 71 NE 5 7 30.42 1030 10 16.09344 0 0
1:15 am 01:15 Clear 50 10 43 6 76 76 N 3 6 30.42 1030 10 16.09344 0 0
1:55 am 01:55 Clear 48 9 41 5 76 76 N 6 9 30.42 1030 10 16.09344 0 0
2:15 am 02:15 Clear 48 9 41 5 76 76 N 7 11 30.42 1030 10 16.09344 0 0
2:35 am 02:35 Clear 48 9 41 5 76 76 NNE 6 9 30.42 1030 10 16.09344 0 0
2:55 am 02:55 Clear 46 8 41 5 82 82 NNE 7 11 30.42 1030 10 16.09344 0 0
3:15 am 03:15 Clear 46 8 41 5 82 82 NNE 7 11 30.42 1030 10 16.09344 0 0
3:35 am 03:35 Clear 46 8 41 5 82 82 NNE 6 9 30.42 1030 10 16.09344 0 0
3:55 am 03:55 Clear 46 8 41 5 82 82 NNE 6 9 30.42 1030 10 16.09344 0 0
4:15 am 04:15 Clear 46 8 41 5 82 82 NNE 5 7 30.45 1031 10 16.09344 0 0
4:35 am 04:35 Clear 45 7 41 5 87 87 N 6 9 30.42 1030 10 16.09344 0 0
4:55 am 04:55 Clear 45 7 41 5 87 87 NNE 5 7 30.45 1031 10 16.09344 0 0
5:15 am 05:15 Clear 45 7 41 5 87 87 NNE 3 6 30.45 1031 10 16.09344 0 0
5:35 am 05:35 Clear 45 7 41 5 87 87 NNE 5 7 30.45 1031 10 16.09344 0 0
5:55 am 05:55 Clear 45 7 41 5 87 87 NNE 6 9 30.42 1030 10 16.09344 0 0
6:15 am 06:15 Clear 45 7 41 5 87 87 NNE 7 11 30.42 1030 10 16.09344 0 0
6:35 am 06:35 Clear 45 7 39 4 81 81 NNE 6 9 30.45 1031 10 16.09344 0 0
6:55 am 06:55 Clear 45 7 39 4 81 81 NNE 7 11 30.45 1031 10 16.09344 0 0
7:15 am 07:15 Sunny 45 7 39 4 81 81 NNE 7 11 30.45 1031 10 16.09344 0 0
7:35 am 07:35 Partly Cloudy 45 7 39 4 81 81 NNE 6 9 30.45 1031 10 16.09344 0 0
7:55 am 07:55 Cloudy 45 7 41 5 87 87 NNE 9 15 30.45 1031 10 16.09344 0 0
8:15 am 08:15 Cloudy 45 7 41 5 87 87 NE 6 9 30.45 1031 10 16.09344 0 0
8:35 am 08:35 Mostly Cloudy 46 8 41 5 82 82 NE 6 9 30.48 1032 10 16.09344 0 0
8:55 am 08:55 Partly Cloudy 46 8 41 5 82 82 NE 6 9 30.48 1032 10 16.09344 0 0
9:15 am 09:15 Partly Cloudy 48 9 41 5 76 76 NE 6 9 30.48 1032 10 16.09344 0 0
9:35 am 09:35 Mostly Cloudy 50 10 41 5 71 71 NE 6 9 30.48 1032 10 16.09344 0 0
9:55 am 09:55 Cloudy 50 10 41 5 71 71 Calm 30.48 1032 10 16.09344 0 0
10:15 am 10:15 Cloudy 52 11 43 6 72 72 NE 5 7 30.48 1032 10 16.09344 0 0
10:35 am 10:35 Cloudy 54 12 43 6 67 67 E 3 6 30.48 1032 10 16.09344 0 0
10:55 am 10:55 Partly Cloudy 54 12 43 6 67 67 E 6 9 30.48 1032 10 16.09344 0 0
11:15 am 11:15 Sunny 55 13 43 6 63 63 E 6 9 30.45 1031 10 16.09344 0 0
11:35 am 11:35 Sunny 55 13 45 7 67 67 ESE 3 6 30.45 1031 10 16.09344 0 0
11:55 am 11:55 Sunny 57 14 45 7 63 63 Calm 30.42 1030 10 16.09344 0 0
12:15 pm 12:15 Partly Cloudy 59 15 45 7 59 59 ENE 7 11 30.42 1030 10 16.09344 0 0
12:35 pm 12:35 Partly Cloudy 59 15 45 7 59 59 SSE 7 11 30.42 1030 10 16.09344 0 0
12:55 pm 12:55 Partly Cloudy 61 16 45 7 55 55 SE 6 9 30.39 1029 10 16.09344 0 0
1:15 pm 13:15 Partly Cloudy 63 17 45 7 52 52 SE 12 19 30.39 1029 10 16.09344 0 0
1:35 pm 13:35 Mostly Cloudy 61 16 45 7 55 55 SE 8 13 30.39 1029 10 16.09344 0 0
1:55 pm 13:55 Cloudy 63 17 45 7 52 52 SE 10 17 30.36 1028 10 16.09344 0 0
2:15 pm 14:15 Mostly Cloudy 63 17 45 7 52 52 ESE 8 13 30.36 1028 10 16.09344 0 0
2:35 pm 14:35 Cloudy 63 17 45 7 52 52 SE 13 20 30.36 1028 10 16.09344 0 0
2:55 pm 14:55 Cloudy 63 17 46 8 56 56 E 8 13 30.36 1028 10 16.09344 0 0
3:15 pm 15:15 Cloudy 63 17 46 8 56 56 SSE 12 19 30.33 1027 10 16.09344 0 0
3:35 pm 15:35 Cloudy 63 17 46 8 56 56 SE 8 13 30.33 1027 10 16.09344 0 0
3:55 pm 15:55 Cloudy 63 17 46 8 56 56 SE 8 13 30.33 1027 10 16.09344 0 0
4:15 pm 16:15 Cloudy 63 17 46 8 56 56 SE 7 11 30.33 1027 10 16.09344 0 0
4:35 pm 16:35 Cloudy 63 17 46 8 56 56 S 6 9 30.33 1027 10 16.09344 0 0
4:55 pm 16:55 Cloudy 63 17 46 8 56 56 SSE 6 9 30.33 1027 10 16.09344 0 0
5:15 pm 17:15 Cloudy 63 17 46 8 56 56 SE 7 11 30.33 1027 10 16.09344 0 0
5:35 pm 17:35 Cloudy 63 17 46 8 56 56 SSE 10 17 30.33 1027 10 16.09344 0 0
5:55 pm 17:55 Cloudy 63 17 46 8 56 56 SSE 8 13 30.33 1027 10 16.09344 0 0
6:15 pm 18:15 Cloudy 63 17 46 8 56 56 SSE 5 7 30.33 1027 10 16.09344 0 0
6:35 pm 18:35 Cloudy 63 17 46 8 56 56 SE 8 13 30.3 1026 10 16.09344 0 0
6:55 pm 18:55 Cloudy 63 17 46 8 56 56 SE 7 11 30.3 1026 10 16.09344 0 0
7:15 pm 19:15 Cloudy 63 17 46 8 56 56 SSE 7 11 30.3 1026 10 16.09344 0 0
7:35 pm 19:35 Cloudy 63 17 46 8 56 56 SSE 7 11 30.3 1026 10 16.09344 0 0
8:15 pm 20:15 Cloudy 63 17 46 8 56 56 SE 10 17 30.3 1026 10 16.09344 0 0
8:55 pm 20:55 Cloudy 63 17 46 8 56 56 SSE 15 24 30.3 1026 10 16.09344 0 0
9:15 pm 21:15 Cloudy 63 17 46 8 56 56 SSE 8 13 30.33 1027 10 16.09344 0 0
9:35 pm 21:35 Cloudy 63 17 46 8 56 56 SSE 10 17 30.33 1027 10 16.09344 0 0
9:55 pm 21:55 Cloudy 61 16 46 8 59 59 SSE 7 11 30.33 1027 10 16.09344 0 0
10:15 pm 22:15 Cloudy 61 16 46 8 59 59 SSE 7 11 30.33 1027 10 16.09344 0 0
10:35 pm 22:35 Cloudy 61 16 46 8 59 59 SSE 10 17 30.33 1027 10 16.09344 0 0
10:55 pm 22:55 Cloudy 61 16 48 9 63 63 SSE 8 13 30.33 1027 10 16.09344 0 0
11:15 pm 23:15 Cloudy 61 16 48 9 63 63 SSE 8 13 30.33 1027 10 16.09344 0 0
11:35 pm 23:35 Cloudy 61 16 50 10 68 68 SSE 9 15 30.3 1026 10 16.09344 0 0
11:55 pm 23:55 Cloudy 61 16 50 10 68 68 SSE 9 15 30.3 1026 10 16.09344 0 0

Powered by AerisWeather